This demonstration page uses our WeatherBlox Daily Observations layout. Learn more.

41.55636, -103.73856

Hourly Observations for May 10, 2019

Temp ( °F °C ) Dew Point ( °F °C ) Humidity (%) Winds ( mph kmh ) Pressure ( in mb ) Visibility ( mi km ) Precip ( " mm )
12:58 am 00:58 Mostly Cloudy with Light Showers 38 3.1 34 1.3 88 88 SSE 7 11 30.22 1023 10 16.0934 0 0
1:58 am 01:58 Mostly Cloudy with Light Rain 35 1.9 33 0.8 93 93 S 6 9 30.23 1024 10 16.0934 0.02 0.508
2:58 am 02:58 Partly Cloudy 33 0.7 31 -0.4 92 92 S 7 11 30.24 1024 10 16.0934 0 0
3:58 am 03:58 Mostly Cloudy 33 0.3 30 -0.9 92 92 SSW 8 13 30.27 1025 10 16.0934 0 0
4:58 am 04:58 Mostly Cloudy 33 0.5 31 -0.5 93 93 SW 9 15 30.25 1024 10 16.0934 0 0
5:58 am 05:58 Mostly Cloudy with Mist and Fog 33 0.3 31 -0.6 94 94 SSW 6 9 30.24 1024 5 8.0467 0 0
6:58 am 06:58 Cloudy 33 0.7 32 -0.2 94 94 S 6 9 30.23 1024 10 16.0934 0 0
7:58 am 07:58 Cloudy 33 0.7 32 -0.2 94 94 Calm 30.2 1023 10 16.0934 0 0
8:58 am 08:58 Cloudy 33 0.7 31 -0.3 93 93 SE 3 6 30.21 1023 8 12.87472 0 0
9:58 am 09:58 Mostly Cloudy 34 0.9 32 0 94 94 S 9 15 30.17 1022 10 16.0934 0 0
10:58 am 10:58 Cloudy 34 1.1 32 -0.1 92 92 S 12 19 30.17 1022 10 16.0934 0 0
11:58 am 11:58 Mostly Cloudy 34 1.2 32 0.2 93 93 S 12 19 30.16 1021 8 12.87472 0 0
12:58 pm 12:58 Mostly Cloudy 35 1.7 33 0.4 91 91 S 13 20 30.14 1021 10 16.0934 0 0
1:58 pm 13:58 Cloudy 37 2.8 33 0.8 87 87 S 15 24 30.17 1022 10 16.0934 0 0
2:58 pm 14:58 Mostly Cloudy 40 4.7 34 0.9 77 77 SSW 20 31 30.13 1020 10 16.0934 0 0
3:58 pm 15:58 Mostly Sunny 43 6.1 32 -0.2 64 64 SSW 18 30 30.13 1020 10 16.0934 0 0
4:58 pm 16:58 Mostly Cloudy 44 6.7 34 0.9 67 67 S 20 31 30.11 1020 10 16.0934 0 0
5:58 pm 17:58 Mostly Cloudy 45 7.2 34 0.9 65 65 S 14 22 30.11 1020 10 16.0934 0 0
6:58 pm 18:58 Mostly Cloudy 47 8.2 34 0.9 60 60 S 14 22 30.09 1019 10 16.0934 0 0
7:58 pm 19:58 Mostly Cloudy 49 9.7 35 1.6 57 57 SSW 10 17 30.05 1018 10 16.0934 0 0
8:58 pm 20:58 Partly Cloudy 52 10.9 33 0.6 49 49 SSW 8 13 30 1016 10 16.0934 0 0
9:58 pm 21:58 Mostly Sunny 54 12.4 32 0.1 43 43 WSW 10 17 29.96 1015 10 16.0934 0 0
10:58 pm 22:58 Mostly Sunny 53 11.6 30 -1.3 41 41 S 6 9 29.96 1014 10 16.0934 0 0
11:58 pm 23:58 Sunny 53 11.8 29 -1.5 40 40 S 5 7 29.94 1014 10 16.0934 0 0

Powered by AerisWeather